Regional Weather Roundup
Issued by NWS

Home | Current Version | Previous Version | Text Only | Print | Product List | Glossary Off
Versions: 1 2 3 4 5 6 7 8 9 10 11 12 13 14 15 16 17 18 19 20 21 22 23 24 25 26 27 28 29 30 31 32 33 34 35 36 37 38 39 40 41 42 43 44 45 46 47 48 49 50

000
ASUS44 KMEG 271700
RWRTN
TENNESSEE HOURLY STATE WEATHER ROUNDUP
NATIONAL WEATHER SERVICE MEMPHIS TN
1100 AM CST MON FEB 27 2017

TNZ002-004-019-021-049-052-054-088>092-271800-
WEST TENNESSEE

CITY           SKY/WX    TMP DP  RH WIND       PRES   REMARKS
MEMPHIS INTL   PTSUNNY   58  49  72 S10       30.15S
NWS MEMPHIS      N/A     61 N/A N/A MISG        N/A
JACKSON        SUNNY     60  48  64 S10       30.17R
UNION CITY     SUNNY     57  46  67 S3G14     30.15S
PARIS          SUNNY     55  45  67 S12       30.17S
$$

TNZ008-025-027-028-033-062-065-066-271800-
NORTH MIDDLE TENNESSEE

CITY           SKY/WX    TMP DP  RH WIND       PRES   REMARKS
NASHVILLE      MOSUNNY   58  38  47 S20G28    30.24R
CLARKSVILLE    SUNNY     57  42  57 S14       30.19F
SMYRNA         MOSUNNY   56  40  55 SE18G29   30.24S
CROSSVILLE     LGT RAIN  44  38  79 S13G23    30.25F
$$

TNZ061-075-076-078-094-096-097-271800-
SOUTH MIDDLE TENNESSEE

CITY           SKY/WX    TMP DP  RH WIND       PRES   REMARKS
TULLAHOMA      SUNNY     48  41  76 SE10      30.23S
WINCHESTER     MOSUNNY   48  43  81 SE17      30.24S
MCMINNVILLE    SUNNY     52  39  62 S10       30.24R
COLUMBIA       SUNNY     54  50  87 S9        30.21R
SHELBYVILLE    SUNNY     54  43  66 SE16      30.23F
$$

TNZ017-018-042-046-047-271800-
NORTHEAST TENNESSEE

CITY           SKY/WX    TMP DP  RH WIND       PRES   REMARKS
TRI CITIES     CLOUDY    51  30  44 CALM      30.31S
$$

TNZ012-013-036-069-073-074-271800-
CENTRAL EAST TENNESSEE

CITY           SKY/WX    TMP DP  RH WIND       PRES   REMARKS
KNOXVILLE      CLOUDY    46  29  51 SW8       30.34R
OAK RIDGE      CLOUDY    47  24  40 SW6       30.35S
GATLINBURG     SUNNY     43  28  56 CALM      30.33R
$$

TNZ083-085-099-271800-
SOUTHEAST TENNESSEE

CITY           SKY/WX    TMP DP  RH WIND       PRES   REMARKS
CHATTANOOGA    RAIN      45  41  86 SE7       30.32F FOG
$$

SKY/WX REPORTED AS FAIR MEANS FEW OR NO CLOUDS BELOW
12 THOUSAND FEET.




USA.gov is the U.S. government's official web portal to all federal, state and local government web resources and services.